User: anonymous
Location: Oshawa
(43.9000°N, 78.8670°W)
Time: 02:17:06
(UTC-04:00)
Language:

ITAMSAT 1 - Orbit

View from above orbital plane
View from above orbital plane
View from above satellite
View from above satellite

Ground track
Ground track

The orbit data is extracted from the following two-line orbital elements,

1 22826U 93061D   14242.41108876  .00000083  00000-0  49094-4 0  5040
2 22826 098.6617 188.3237 0010033 076.2677 283.9622 14.30042130 91520
Epoch (UTC): 30 August 2014 09:51:58
Eccentricity: 0.0010033
inclination: 98.6617°
perigee height: 784 km
apogee height: 799 km
right ascension of ascending node: 188.3237°
argument of perigee: 76.2677°
revolutions per day: 14.30042130
mean anomaly at epoch: 283.9622°
orbit number at epoch: 9152

The dashed part of the orbit path shows where the satellite is in the earth's shadow,  

DLR